Regional Weather Roundup
Issued by NWS

Home | Current Version | Previous Version | Graphics & Text | Print | Product List | Glossary On
Versions: 1 2 3 4 5 6 7 8 9 10 11 12 13 14 15 16 17 18 19 20 21 22 23 24 25 26 27 28 29 30 31 32 33 34 35 36 37 38 39 40 41 42 43 44 45 46 47 48 49 50
324
ASUS44 KLIX 062101
RWRLA
LOUISIANA WEATHER ROUNDUP
NATIONAL WEATHER SERVICE NEW ORLEANS LA
300 PM CST FRI MAR 06 2015

NOTE: "FAIR" INDICATES FEW OR NO CLOUDS BELOW 12,000 FEET WITH NO
      SIGNIFICANT WEATHER AND/OR OBSTRUCTIONS TO VISIBILITY.
      SKY/WX - SKY CONDITION AND SIGNIFICANT WEATHER.
      TMP - AIR TEMPERATURE.    DP   - DEWPOINT TEMPERATURE.
      RH  - RELATIVE HUMIDITY.  PRES - PRESSURE.
      HX  - HEAT INDEX.         WCI  - WIND CHILL INDEX.

*  THESE STATIONS ARE NOT NWS OR FAA STATIONS AND ARE NOT UNDER
   NWS QUALITY CONTROL.

LAZ040-048-061>063-065-066-069-062200-
SOUTHEAST LOUISIANA

CITY           SKY/WX    TMP DP  RH WIND       PRES   REMARKS
N.O. AUDUBON     N/A     52  20  28 MISG        N/A
N.O. INTL ARPT CLOUDY    51  18  27 N13       30.42F
N.O. LAKEFRONT MOSUNNY   54  19  25 N9        30.43F
SLIDELL        MOSUNNY   54  15  21 N14       30.40F
BATON ROUGE    MOSUNNY   53  13  20 N8        30.43F
BOOTHVILLE     PTSUNNY   48  28  46 N9G20     30.40F
BELLE CHASSE   PTSUNNY   51  16  24 N10       30.41F
BOGALUSA*        N/A     55  10  16 NE9       30.42F
GALLIANO*      PTCLDY    54  21  27 N10       30.42S
NEW ROADS*     NOT AVBL
GONZALES*      NOT AVBL
HAMMOND*       NOT AVBL
HOUMA*         SUNNY     52  21  30 N16       30.42F
PORT FOURCHON*   N/A     50  23  34 NE14G20   30.43F

$$

LAZ041-044-053-054-062200-
SOUTHWEST LOUISIANA

CITY           SKY/WX    TMP DP  RH WIND       PRES   REMARKS
LAKE CHARLES   PTSUNNY   51  16  24 NE7G17    30.46F
LAFAYETTE      PTSUNNY   48  19  31 NE12G17   30.46S
PATTERSON      MOSUNNY   52  19  28 N9        30.44F
SALT POINT       N/A     51  16  24 VRB6      30.42F
NEW IBERIA     SUNNY    N/A N/A N/A MISG      30.46
CHENAULT AIRPK SUNNY     50  16  25 N8        30.47F

$$

LAZ027-028-062200-
CENTRAL LOUISIANA

CITY           SKY/WX    TMP DP  RH WIND       PRES   REMARKS
FORT POLK      SUNNY     49  14  24 NE10G16   30.46F
ALEXANDRIA INT MOSUNNY   51  16  24 N8        30.47F
ALEXANDRIA     MOSUNNY   52  16  24 N12       30.48F

$$

LAZ001-002-062200-
NORTHWEST LOUISIANA

CITY           SKY/WX    TMP DP  RH WIND       PRES   REMARKS
SHREVEPORT     MOSUNNY   50  17  27 VRB5      30.50F
BARKSDALE AFB  SUNNY     50  17  26 NW7       30.50F
DTN SHREVEPORT SUNNY     50  17  27 N6        30.51F

$$

LAZ014-016-062200-
NORTHEAST LOUISIANA

CITY           SKY/WX    TMP DP  RH WIND       PRES   REMARKS
MONROE         SUNNY     44  22  41 E9        30.54F
TALLULAH       SUNNY     44  23  43 N12       30.52F

$$




USA.gov is the U.S. government's official web portal to all federal, state and local government web resources and services.